TimeMDT,TemperatureF,Dew PointF,Humidity,Sea Level PressureIn,VisibilityMPH,Wind Direction,Wind SpeedMPH,Gust SpeedMPH,PrecipitationIn,Events,Conditions,WindDirDegrees,DateUTC
12:52 AM,57.0,32.0,39,29.86,10.0,NNW,5.8,-,N/A,,Partly Cloudy,340,2013-05-21 06:52:00
1:52 AM,55.9,32.0,40,29.86,10.0,North,5.8,-,N/A,,Partly Cloudy,350,2013-05-21 07:52:00
2:52 AM,55.0,32.0,42,29.86,10.0,North,5.8,-,N/A,,Partly Cloudy,10,2013-05-21 08:52:00
3:52 AM,54.0,32.0,43,29.86,10.0,Calm,Calm,-,N/A,,Clear,0,2013-05-21 09:52:00
4:52 AM,53.1,32.0,45,29.87,10.0,North,5.8,-,N/A,,Clear,360,2013-05-21 10:52:00
5:52 AM,50.0,30.9,48,29.91,10.0,ENE,3.5,-,N/A,,Partly Cloudy,70,2013-05-21 11:52:00
6:52 AM,53.1,32.0,45,29.93,10.0,NNE,6.9,-,N/A,,Clear,20,2013-05-21 12:52:00
7:52 AM,54.0,32.0,43,29.95,10.0,North,4.6,-,N/A,,Clear,10,2013-05-21 13:52:00
8:52 AM,55.9,33.1,42,29.96,10.0,Calm,Calm,-,N/A,,Partly Cloudy,0,2013-05-21 14:52:00
9:52 AM,61.0,33.1,35,29.94,10.0,Calm,Calm,-,N/A,,Partly Cloudy,0,2013-05-21 15:52:00
10:52 AM,64.9,30.9,28,29.92,10.0,SE,5.8,-,N/A,,Partly Cloudy,140,2013-05-21 16:52:00
11:52 AM,66.0,32.0,28,29.91,10.0,Variable,3.5,-,N/A,,Partly Cloudy,0,2013-05-21 17:52:00
12:52 PM,69.1,30.0,23,29.87,10.0,Variable,5.8,-,N/A,,Partly Cloudy,0,2013-05-21 18:52:00
1:52 PM,73.0,28.0,19,29.83,10.0,Variable,6.9,-,N/A,,Partly Cloudy,0,2013-05-21 19:52:00
2:52 PM,75.9,26.1,16,29.80,10.0,SW,16.1,24.2,N/A,,Partly Cloudy,220,2013-05-21 20:52:00
3:52 PM,78.1,24.1,14,29.76,10.0,WSW,16.1,23.0,N/A,,Scattered Clouds,250,2013-05-21 21:52:00
4:52 PM,79.0,21.0,12,29.74,10.0,West,5.8,25.3,N/A,,Scattered Clouds,280,2013-05-21 22:52:00
5:52 PM,79.0,21.0,12,29.73,10.0,West,4.6,-,N/A,,Scattered Clouds,280,2013-05-21 23:52:00
6:52 PM,79.0,19.9,11,29.71,10.0,North,12.7,-,N/A,,Scattered Clouds,10,2013-05-22 00:52:00
7:52 PM,77.0,19.9,12,29.72,10.0,NNE,10.4,-,N/A,,Scattered Clouds,20,2013-05-22 01:52:00
8:52 PM,73.9,21.9,14,29.75,10.0,NNE,6.9,-,N/A,,Scattered Clouds,30,2013-05-22 02:52:00
9:52 PM,73.0,23.0,15,29.75,10.0,NE,4.6,-,N/A,,Scattered Clouds,50,2013-05-22 03:52:00
10:52 PM,66.9,21.0,17,29.77,10.0,East,4.6,-,N/A,,Mostly Cloudy,100,2013-05-22 04:52:00
11:52 PM,68.0,23.0,18,29.75,10.0,Calm,Calm,-,N/A,,Mostly Cloudy,0,2013-05-22 05:52:00